Weather in Pai

Thailand     19°22′01″N   98°25′25″E
temp.,
°C
wind,
m/s
gust,
m/s
humid.,
%
clouds,
%
prec.,
mm/h
press.,
hPa
HPBL,
m
15 june, tue
tue1501:00+20ssw1198100 0.1 100733
04:00+20ssw0099100 0.1 100632
07:00+20s1198100 0.1 100768
10:00+23ssw138775 1.1 1007437
13:00+23sw139198 3.4 1006461
16:00+23wsw159272 1.7 1004716
19:00+21wsw119635 3.5 100519
22:00+20sw119794 0.6 100834
16 june, wed
wed1601:00+20sw1198100 1.0 100718
04:00+20sw0198100 0.1 100722
07:00+20s0198100 0.2 100764
10:00+21sse129487 0.2 1009264
13:00+23s1290100 2.9 1007552
16:00+23s2691100 3.8 1005817
19:00+20s129750 5.3 100745
22:00+20ssw129860 0.1 101060
17 june, thu
thu1701:00+20s1198100 0.1 100941
04:00+20s1198100 0.1 100825
07:00+20sse1197100 0.1 100965
10:00+20sse1298100 0.5 1010126
13:00+21wsw0196100 1.1 1009147
16:00+23sw148761 1.4 1007598
19:00+20sw119558 4.2 100913
22:00+19ssw119784 0.1 101226
18 june, fri
fri1801:00+18sw119827 0.3 101120
04:00+18ssw119875 0.0 101117
07:00+18sw019892 0.0 101240
10:00+20sse0194100 0.0 1012136
13:00+25wsw136867 0.1 10101035
16:00+24wsw238543 2.6 1008637
19:00+21wsw119641 5.9 101015
22:00+20w119857 0.3 101229
19 june, sat
sat1901:00+19w1199100 0.3 101134
04:00+19wnw119973 0.0 101045
07:00+20w119875 0.1 1012106
10:00+25w136941 0.2 10111005
13:00+28w2453100 0.4 10081881
16:00+27wsw255984 0.0 10061681
19:00+22sw118523 0.2 100711
22:00+20wsw119583 0.0 101026